Flag for India Weather past 2 weeks in Ahmedabad, Gujarat, India

Now
79 °F

Light rain. Scattered clouds.


Feels Like: 83 °F
Forecast: 79 / 87 °F
Wind: 8 mph from West

Location: Ahmadabad Airport

Current Time: Jul 24, 2014 at 10:30:33 AM

Latest Report: Jul 24, 2014 at 9:40 AM


Visibility: 2 mi

Pressure: 29.53 "Hg

Humidity: 100%

Dew point: 79 °F

Location of AhmedabadLocation

Historic Weather in Ahmedabad — Graph

°F

Ahmedabad temperature yesterday

Maximum temperature yesterday: 88 °F (at 1:40 PM)
Minimum temperature yesterday: 79 °F (at 8:40 PM)
Average temperature yesterday: 84 °F

Past Weeks' High & Low Weather Summary

 TemperatureHumidityPressure
High104 °F (Jul 12, 3:40 PM)100% (Jul 17, 7:40 AM)29.65 "Hg (Jul 17, 7:40 AM)
Low77 °F (Jul 18, 9:40 PM)37% (Jul 11, 2:40 PM)29.39 "Hg (Jul 15, 3:40 PM)
Average87 °F73%29.52 "Hg
* Reported Jul 9 6:40 PM — Jul 24 8:40 AM, Ahmedabad, Weather by CustomWeather, © 2014

Note: Actual official high and low records may vary slightly from our data, if they occured in-between our weather recording intervals... More about our weather records

Advertising

Ahmedabad weather history for previous 24 hours

 ConditionsComfort  
Time TempWeatherWind HumidityBarometerVisibility
8:40 AM
Jul 24
79 °FFog.9 mph100%29.53 "Hg1 mi
6:40 AM79 °FFog.7 mph100%29.50 "Hg2 mi
5:40 AM79 °FFog.3 mph100%29.47 "Hg2 mi
3:40 AM79 °FRain. Mostly cloudy.14 mph94%29.45 "Hg1 mi
2:40 AM79 °FLight rain. Mostly cloudy.7 mph100%29.45 "Hg2 mi
1:40 AM79 °FLight rain. Passing clouds.6 mph100%29.47 "Hg2 mi
12:40 AM79 °FLight rain. Passing clouds.7 mph100%29.50 "Hg2 mi
11:40 PM
Jul 23
79 °FLight rain. Mostly cloudy.9 mph94%29.47 "Hg2 mi
10:40 PM79 °FLight rain. Partly cloudy.12 mph94%29.50 "Hg2 mi
9:40 PM79 °FLight rain. Mostly cloudy.5 mph94%29.50 "Hg2 mi
8:40 PM79 °FLight rain. Mostly cloudy.8 mph94%29.45 "Hg2 mi
6:40 PM84 °FRain. Scattered clouds.9 mph74%29.45 "Hg1 mi
5:40 PM88 °FBroken clouds.12 mph66%29.42 "Hg2 mi
4:40 PM88 °FScattered clouds.8 mph70%29.42 "Hg2 mi
3:40 PM88 °FBroken clouds.12 mph66%29.42 "Hg2 mi
2:40 PM88 °FBroken clouds.12 mph66%29.45 "Hg2 mi
1:40 PM88 °FBroken clouds.12 mph70%29.47 "Hg2 mi
Weather by CustomWeather, © 2014

See weather overviewHow to use our weather pages